sat.trackr.live / text

‹ back to catalog

STARLINK-2422

NORAD 47832 · 2021-018AX

PAYLOAD ACTIVE UNKNOWN

§ Identity

Operator
Country
US
Launch date
2021-03-11
Launch site
AFETR
Launch vehicle
Mass (kg)
RCS (m²)

Purposes: comms

External: N2YO · Heavens-Above · Gunter

§ Orbital elements

Epoch: 2026-09-14T19:36:17.002944Z

Period
94.01 min
Inclination
53.1635°
Eccentricity
0.0001506
Mean motion
15.31703069 rev/d
Perigee alt
469.7 km
Apogee alt
471.8 km
Semi-major
6,848.9 km
B*
3.7997e-6
RAAN
85.5564°
Arg perigee
89.9954°
Mean anomaly
270.1220°
Rev number
30,566

§ Raw data

STARLINK-24221 47832U 21018AX  26257.81686346 -.00000247  00000+0  37997-5 0  99932 47832  53.1635  85.5564 0001506  89.9954 270.1220 15.31703069305667

JSON: /api/v1/satellites/47832 · /tle

For live sub-satellite position, see the globe view (requires WebGL).

§ Visibility from observer

Set your observer location to see the next 7 days of passes ≥ 10°. The values pass through the URL so the page stays shareable.

No JS? Fill the form by hand. The geolocation button needs JavaScript.